Cleveland, OH

2:40 PM EST on January 17, 2017 (GMT -0500)
Burke Lakefront

Weather History for KBKL - January, 2012

Change the Weather History Date:

Saturday, January 14, 2012

  Actual Average Record
Temperature  
Mean Temperature 22 °F -  
Max Temperature 24 °F 31 °F 50 °F (2006)
Min Temperature 21 °F 20 °F 7 °F (2015)
Degree Days  
Heating Degree Days 42    
Moisture  
Dew Point 16 °F    
Average Humidity 77    
Maximum Humidity 93    
Minimum Humidity 69    
Precipitation  
Precipitation 0.08 in - - ()
Sea Level Pressure  
Sea Level Pressure 30.12 in    
Wind  
Wind Speed 14 mph (SW)    
Max Wind Speed 18 mph    
Max Gust Speed 23 mph    
Visibility 4 miles    
Events Fog , Snow    
Averages and records for this station are not official NWS values.
T = Trace of Precipitation, MM = Missing Value Source: NWS Daily Summary

Daily Weather History Graph

Daily Weather History Graph

Search for Another Location

Airport or City:

Trip Planner

Search our weather history database for the weather conditions in past years. The results will help you decide how hot, cold, wet, or windy it might be!

Date:

Astronomy

Jan. 14, 2012 Rise Set
Actual Time 7:51 AM EST 5:20 PM EST
Civil Twilight 7:20 AM EST 5:50 PM EST
Nautical Twilight 6:46 AM EST 6:25 PM EST
Astronomical Twilight 6:13 AM EST 6:58 PM EST
Moon 11:45 PM EST (1/14) 10:31 AM EST (1/14)
Length of Visible Light 10h 29m
Length of Day
9h 28m
Waning Gibbous, 69% of the Moon is Illuminated
Jan 14
Waning Gibbous
Jan 16
Last Quarter
Jan 23
New
Jan 30
First Quarter
Feb 7
Full

Hourly Weather History & Observations

Time (EST) Temp. Windchill Dew Point Humidity Pressure Visibility Wind Dir Wind Speed Gust Speed Precip Events Conditions
12:53 AM 21.9 °F 7.8 °F 16.0 °F 78% 29.98 in 6.0 mi SW 17.3 mph - 0.00 in Snow Light Snow
1:53 AM 23.0 °F 8.7 °F 16.0 °F 74% 29.99 in 7.0 mi SW 18.4 mph - 0.00 in   Overcast
2:53 AM 23.0 °F 8.7 °F 16.0 °F 74% 30.01 in 7.0 mi SW 18.4 mph - N/A   Overcast
3:53 AM 23.0 °F 9.2 °F 16.0 °F 74% 30.02 in 8.0 mi SW 17.3 mph - N/A   Overcast
4:53 AM 23.0 °F 9.6 °F 16.0 °F 74% 30.03 in 5.0 mi SW 16.1 mph 23.0 mph 0.00 in Snow Light Snow
5:17 AM 21.2 °F 6.4 °F 15.8 °F 80% 30.01 in 2.5 mi SW 18.4 mph - 0.00 in Snow Light Snow
5:30 AM 21.2 °F 6.8 °F 15.8 °F 80% 30.01 in 4.0 mi SW 17.3 mph - 0.00 in Snow Light Snow
5:53 AM 21.9 °F 7.3 °F 16.0 °F 78% 30.04 in 5.0 mi SW 18.4 mph - 0.00 in   Haze
6:53 AM 21.9 °F 8.7 °F 15.1 °F 75% 30.07 in 8.0 mi SW 15.0 mph - N/A   Overcast
7:53 AM 21.0 °F 9.3 °F 15.1 °F 78% 30.08 in 7.0 mi SW 11.5 mph - N/A   Overcast
8:53 AM 21.0 °F 7.1 °F 15.1 °F 78% 30.10 in 7.0 mi SW 16.1 mph 21.9 mph N/A   Overcast
9:30 AM 21.2 °F 7.8 °F 15.8 °F 80% 30.09 in 2.0 mi SW 15.0 mph - 0.00 in Snow Light Snow
9:44 AM 21.2 °F 7.3 °F 15.8 °F 80% 30.09 in 1.8 mi SW 16.1 mph - 0.00 in Snow Light Snow
9:53 AM 21.9 °F 7.8 °F 15.1 °F 75% 30.12 in 2.0 mi SW 17.3 mph - 0.00 in Snow Light Snow
10:12 AM 21.2 °F 7.3 °F 15.8 °F 80% 30.09 in 3.0 mi SW 16.1 mph - 0.00 in Snow Light Snow
10:53 AM 21.9 °F 9.2 °F 15.1 °F 75% 30.13 in 3.0 mi SW 13.8 mph - 0.00 in Snow Light Snow
11:15 AM 23.0 °F 11.1 °F 15.8 °F 74% 30.10 in 2.5 mi SW 12.7 mph - 0.00 in Snow Light Snow
11:23 AM 23.0 °F 11.1 °F 15.8 °F 74% 30.10 in 3.0 mi SW 12.7 mph - 0.00 in Snow Light Snow
11:53 AM 23.0 °F 11.7 °F 15.1 °F 72% 30.12 in 3.0 mi SW 11.5 mph - 0.00 in Snow Light Snow
12:53 PM 23.0 °F 11.1 °F 15.1 °F 72% 30.11 in 4.0 mi WSW 12.7 mph - 0.00 in Snow Light Snow
1:53 PM 23.0 °F 12.4 °F 15.1 °F 72% 30.10 in 4.0 mi SW 10.4 mph - 0.00 in Snow Light Snow
2:53 PM 24.1 °F 13.7 °F 15.1 °F 69% 30.11 in 8.0 mi WSW 10.4 mph - 0.00 in   Overcast
3:42 PM 23.0 °F 11.1 °F 15.8 °F 74% 30.10 in 2.0 mi WSW 12.7 mph - 0.00 in Snow Light Snow
3:50 PM 23.0 °F 12.4 °F 15.8 °F 74% 30.10 in 1.8 mi WSW 10.4 mph - 0.00 in Snow Light Snow
3:53 PM 23.0 °F 11.7 °F 16.0 °F 74% 30.13 in 1.8 mi WSW 11.5 mph - 0.00 in Snow Light Snow
4:00 PM 23.0 °F 11.7 °F 15.8 °F 74% 30.10 in 2.0 mi WSW 11.5 mph - 0.00 in Snow Light Snow
4:33 PM 23.0 °F 13.1 °F 15.8 °F 74% 30.11 in 3.0 mi SW 9.2 mph - 0.00 in Snow Light Snow
4:53 PM 23.0 °F 12.4 °F 15.1 °F 72% 30.14 in 5.0 mi SSW 10.4 mph - 0.00 in   Haze
5:24 PM 23.0 °F 13.1 °F 15.8 °F 74% 30.12 in 6.0 mi SW 9.2 mph - N/A   Haze
5:53 PM 23.0 °F 11.1 °F 15.1 °F 72% 30.16 in 8.0 mi SW 12.7 mph - N/A   Overcast
6:53 PM 23.0 °F 11.7 °F 15.1 °F 72% 30.17 in 8.0 mi SW 11.5 mph - N/A   Overcast
7:53 PM 23.0 °F 11.7 °F 15.1 °F 72% 30.19 in 7.0 mi SW 11.5 mph - N/A   Overcast
8:09 PM 23.0 °F 13.1 °F 15.8 °F 74% 30.17 in 8.0 mi SW 9.2 mph - N/A   Overcast
8:22 PM 23.0 °F 12.4 °F 15.8 °F 74% 30.17 in 7.0 mi SW 10.4 mph - 0.00 in Snow Light Snow
8:42 PM 23.0 °F 12.4 °F 15.8 °F 74% 30.18 in 1.8 mi WSW 10.4 mph - 0.00 in Snow Light Snow
8:53 PM 21.9 °F 12.5 °F 17.1 °F 82% 30.21 in 0.8 mi WSW 8.1 mph - 0.00 in Snow Light Snow
9:00 PM 21.2 °F 10.9 °F 17.6 °F 86% 30.18 in 0.8 mi WSW 9.2 mph - 0.00 in Snow Light Snow
9:11 PM 21.2 °F 12.6 °F 17.6 °F 86% 30.18 in 1.0 mi SSW 6.9 mph - 0.01 in Snow Light Snow
9:53 PM 21.9 °F 14.5 °F 18.0 °F 85% 30.22 in 1.5 mi SW 5.8 mph - 0.01 in Snow Light Snow
10:05 PM 21.2 °F 11.7 °F 17.6 °F 86% 30.19 in 1.0 mi SW 8.1 mph - 0.01 in Snow Light Snow
10:09 PM 21.2 °F 11.7 °F 17.6 °F 86% 30.19 in 0.8 mi SW 8.1 mph - 0.02 in Snow Light Snow
10:34 PM 21.2 °F - 19.4 °F 93% 30.19 in 0.5 mi Calm Calm - 0.06 in Fog , Snow Snow
10:53 PM 21.9 °F 17.2 °F 19.0 °F 89% 30.23 in 1.0 mi South 3.5 mph - 0.07 in Snow Light Snow
11:02 PM 23.0 °F - 17.6 °F 80% 30.20 in 1.2 mi Calm Calm - 0.00 in Snow Light Snow
11:33 PM 21.2 °F 14.9 °F 17.6 °F 86% 30.21 in 2.0 mi SSE 4.6 mph - 0.00 in Snow Light Snow
11:53 PM 21.9 °F 17.2 °F 18.0 °F 85% 30.25 in 2.5 mi South 3.5 mph - 0.00 in Snow Light Snow